Wind_Speed
12 12 12 11 11 10 10 8 7 6 6 5 5 4 3 3 2 2 4 5 5 6 6 6 6 6 6 6 6 5 4 3 2 1 1 1 2 3 3 4 4 5 6
12 12 12 12 12 12 11 9 8 7 6 6 5 4 3 3 2 2 3 4 5 5 6 5 6 6 6 6 6 5 5 4 3 2 2 1 1 2 2 3 3 4 5
13 13 13 13 12 11 11 9 8 7 7 6 6 5 4 3 2 2 3 4 4 5 5 5 5 5 5 5 5 5 5 4 3 3 2 1 1 1 1 2 2 3 3
14 14 14 13 12 12 12 10 9 8 8 7 6 5 4 3 2 1 2 3 4 4 5 5 4 4 5 5 5 5 5 5 4 4 3 3 2 1 0 1 1 1 2
14 13 14 14 14 13 12 11 10 9 8 8 6 5 4 3 2 2 2 2 3 4 4 4 4 4 3 4 4 5 5 5 4 4 4 3 3 2 1 1 0 1 2
14 13 14 15 14 13 12 11 10 10 9 8 7 5 5 4 3 2 1 1 2 3 3 4 4 3 3 3 3 4 4 4 4 4 3 3 3 3 2 2 1 1 1
14 14 14 15 15 14 13 12 11 11 10 9 8 6 5 5 4 3 2 2 1 1 2 2 3 3 3 3 3 3 3 3 3 3 3 3 3 3 2 2 2 2 2
14 14 13 14 15 14 14 13 12 11 10 9 8 7 6 5 4 4 4 3 2 2 2 2 2 2 2 3 3 3 3 3 3 3 3 3 3 2 2 2 3 3 3
14 14 13 14 15 15 15 14 13 11 11 10 9 8 6 5 5 5 5 4 4 3 2 2 3 3 3 3 3 3 2 2 2 2 2 2 2 2 3 3 4 4 4
14 14 14 14 14 15 15 15 14 12 11 11 10 9 7 6 6 5 5 5 5 4 4 4 4 4 4 4 4 3 3 2 2 2 2 2 2 3 3 4 5 5 5
13 14 14 14 15 15 15 15 14 13 11 11 11 10 9 8 7 6 5 5 6 5 5 5 5 4 4 3 3 3 3 3 3 3 3 3 4 4 4 5 6 6 6
14 14 15 15 15 15 15 16 15 13 12 12 12 11 10 9 8 8 7 7 7 7 6 5 5 4 4 3 3 4 4 4 4 5 5 5 6 6 6 6 7 7 8
14 15 15 15 15 15 15 16 15 14 13 13 12 12 11 10 10 9 9 9 9 8 7 6 5 5 5 4 4 5 5 5 6 6 7 7 7 8 8 8 9 9 9
13 14 15 14 15 15 15 15 16 15 14 14 13 12 12 11 11 10 10 10 10 10 9 7 7 6 6 6 6 6 6 6 7 7 8 8 9 9 10 10 11 11 11
13 14 15 15 14 15 15 15 16 15 15 14 14 13 12 11 12 11 11 11 11 11 11 9 9 8 8 8 8 8 8 8 8 9 9 10 10 11 12 12 12 13 13
13 14 14 14 15 15 15 15 16 16 16 15 14 13 13 12 12 12 12 12 12 12 12 11 10 10 10 10 10 10 10 10 10 11 11 12 13 13 14 14 14 15 15
14 15 16 16 15 15 15 15 16 16 16 16 15 15 14 14 14 13 14 14 14 14 13 12 12 12 12 11 12 12 12 12 12 12 13 13 14 15 15 16 16 17 17
15 16 17 17 17 17 16 16 16 16 17 17 17 16 16 16 15 15 15 15 15 15 14 14 14 13 13 13 14 14 14 14 14 15 15 16 16 17 18 19 19 20 20
14 15 17 17 17 17 17 17 17 17 16 16 17 17 17 17 17 17 17 17 17 17 16 16 16 15 16 16 16 16 16 16 17 17 18 18 19 20 21 21 22 23 23
13 14 16 17 18 17 17 17 17 17 17 17 18 18 18 18 18 18 17 17 17 17 17 17 17 18 18 18 18 19 19 19 19 20 21 21 22 23 23 24 25 25 26
13 14 15 16 18 18 18 18 18 18 18 18 19 19 19 19 18 18 18 18 18 18 18 19 19 20 20 20 20 21 21 21 22 22 23 24 25 25 26 27 27 28 29
14 14 15 16 17 18 18 19 18 18 19 19 19 19 19 19 19 19 20 20 20 20 20 21 22 22 22 23 23 23 23 24 24 24 25 26 27 28 28 29 30 30 31
15 15 15 16 17 17 18 19 19 19 18 19 19 19 20 20 20 21 21 22 21 21 22 22 23 24 24 24 24 25 25 26 26 27 27 29 29 30 31 32 33 33 34
16 16 16 16 17 17 17 18 19 19 19 19 20 20 21 21 21 21 21 21 22 22 23 24 24 25 26 26 27 27 28 28 28 29 30 31 32 32 33 34 35 36 36
17 17 17 18 18 18 19 19 20 20 20 21 21 21 22 22 22 22 22 23 23 24 25 26 26 27 28 28 29 29 30 30 31 32 32 33 34 35 35 36 37 37 38
18 19 19 19 19 20 20 21 21 21 21 22 22 23 24 24 24 24 25 25 26 27 28 28 29 29 30 30 31 32 32 33 33 34 34 35 36 37 37 38 38 39 39
Wind_Direction
206 200 200 200 200 201 201 202 212 217 218 224 232 240 254 266 282 324 341 347 353 359 360 3 4 6 10 14 15 15 17 23 37 70 156 187 190 197 208 216 221 228 232
200 196 196 199 201 201 200 206 210 216 221 223 226 227 243 256 282 330 344 350 355 358 3 7 7 10 12 19 23 26 30 32 42 55 82 137 164 188 209 221 227 232 234
201 198 197 198 197 198 201 205 209 216 222 229 233 228 239 255 282 317 341 352 356 360 5 11 17 20 25 30 32 33 36 39 46 52 60 88 111 144 205 224 227 228 229
206 202 196 196 198 198 199 205 211 214 220 227 231 229 240 253 260 296 339 354 358 3 10 19 27 30 34 38 39 39 42 44 50 56 66 77 88 96 99 204 229 229 228
207 204 201 197 197 197 200 207 212 214 219 222 222 226 233 246 256 288 324 348 358 9 15 21 29 30 31 38 43 44 43 45 51 58 64 70 68 64 81 78 340 269 243
208 207 203 196 196 199 204 210 214 216 217 221 228 234 239 242 242 257 290 337 357 2 9 15 19 25 30 34 38 40 42 44 47 57 63 63 60 64 68 64 48 355 282
209 206 204 201 201 204 209 213 216 216 217 221 225 229 240 239 235 239 256 271 305 332 350 2 9 20 27 29 30 30 32 34 45 53 55 56 55 53 47 40 23 353 316
204 204 207 208 208 209 213 215 217 218 218 220 221 226 232 234 236 237 248 250 260 280 304 321 338 354 8 12 10 13 20 31 40 45 50 50 44 39 24 12 359 349 336
206 207 209 211 212 212 213 216 218 221 220 220 220 221 224 228 234 240 243 245 251 262 281 298 303 314 317 320 331 340 350 8 19 25 30 30 23 10 355 349 347 340 327
207 209 211 214 213 213 213 217 217 219 219 220 220 220 222 230 239 245 243 247 252 260 273 281 288 301 308 314 320 323 326 326 327 339 342 338 332 333 334 334 336 335 328
210 211 214 215 214 213 214 215 215 219 221 220 219 222 226 231 234 242 249 253 259 264 268 280 294 302 302 311 319 319 314 312 311 314 316 319 319 318 319 322 323 322 320
212 212 214 215 215 215 217 216 216 220 222 223 223 229 232 236 236 243 247 254 261 265 264 273 285 291 291 295 301 303 301 303 305 304 302 303 305 305 308 309 312 312 313
217 214 214 217 218 218 219 217 217 221 223 225 228 232 236 237 239 245 248 254 260 266 264 265 270 275 281 286 289 292 294 297 300 301 300 299 299 302 301 300 302 304 307
220 215 214 215 219 220 219 218 219 222 224 227 232 236 235 237 242 247 248 252 257 260 260 260 266 270 274 278 283 286 290 291 295 296 297 299 298 298 299 299 298 301 303
219 215 215 214 218 219 218 218 220 222 225 229 233 233 234 243 244 247 250 253 256 258 260 257 261 265 269 274 278 282 286 288 292 294 296 299 300 299 298 300 301 301 302
218 214 215 216 218 219 219 221 222 225 228 232 231 234 240 245 248 248 252 256 257 257 257 257 260 264 267 270 273 278 283 287 291 294 296 298 299 299 298 299 299 300 300
222 218 218 220 219 222 224 226 226 228 232 235 234 240 243 246 250 252 254 255 257 257 255 256 260 263 266 270 273 276 280 285 287 290 294 298 300 301 299 299 300 300 300
225 222 222 221 223 225 227 228 229 232 236 239 239 243 245 247 250 255 255 258 258 256 255 256 258 261 266 270 274 276 280 283 286 288 291 295 298 299 299 298 297 297 297
224 222 223 223 225 229 231 231 231 236 241 242 242 246 248 249 253 256 255 257 257 255 254 256 258 262 267 269 274 277 279 281 285 287 289 292 295 297 298 297 296 295 295
229 226 227 228 229 231 234 234 236 239 243 243 246 248 250 251 253 254 254 257 258 255 255 259 261 264 268 271 274 277 280 281 283 285 288 290 293 295 296 296 295 294 294
229 229 230 231 232 234 235 235 238 240 243 243 246 249 252 252 252 253 255 256 258 258 258 261 264 267 269 271 274 277 279 282 284 285 288 291 292 294 295 296 296 295 295
234 234 233 234 235 235 237 238 240 244 245 246 247 249 250 249 251 254 256 258 260 260 261 263 266 268 271 273 275 277 278 280 282 284 287 289 292 294 295 296 296 296 296
239 237 237 235 237 238 241 242 244 246 249 250 249 251 251 251 254 257 260 262 263 263 263 265 267 269 272 274 275 277 279 281 283 284 287 289 291 293 295 296 296 296 296
241 242 242 241 242 244 246 247 248 249 251 252 253 254 254 256 257 258 260 261 263 264 265 266 268 270 274 276 278 279 281 282 284 285 287 289 291 292 293 295 296 296 296
242 243 242 242 244 247 249 250 251 252 254 255 255 255 256 257 259 260 262 265 266 268 269 270 272 274 276 279 280 281 282 283 284 286 287 289 290 292 293 294 295 295 295
248 246 247 249 249 250 251 251 252 256 256 256 257 257 257 258 260 262 264 267 269 271 273 274 275 276 277 279 281 282 283 283 285 286 288 289 290 291 292 294 294 295 295
Height
5863 5865 5867 5869 5871 5873 5875 5877 5878 5879 5879 5880 5880 5881 5881 5880 5879 5879 5878 5877 5876 5874 5873 5872 5870 5868 5867 5865 5864 5863 5862 5861 5861 5860 5860 5860 5860 5861 5862 5863 5863 5864 5864
5861 5863 5865 5867 5869 5871 5873 5875 5877 5878 5878 5879 5879 5879 5879 5879 5878 5878 5877 5876 5875 5874 5873 5871 5870 5868 5867 5866 5864 5863 5862 5861 5861 5860 5860 5860 5861 5861 5861 5862 5862 5863 5863
5859 5861 5863 5865 5867 5869 5871 5873 5875 5876 5877 5877 5877 5878 5878 5878 5877 5877 5876 5875 5875 5874 5872 5871 5869 5868 5867 5866 5865 5864 5863 5862 5861 5861 5860 5860 5860 5860 5861 5861 5861 5862 5862
5857 5859 5861 5864 5866 5868 5870 5872 5873 5874 5875 5876 5876 5876 5877 5877 5876 5876 5875 5875 5874 5873 5872 5871 5869 5868 5867 5866 5865 5864 5863 5862 5862 5861 5860 5861 5860 5861 5861 5861 5861 5861 5861
5855 5857 5859 5862 5864 5866 5868 5870 5872 5873 5874 5874 5875 5875 5875 5875 5875 5875 5875 5874 5874 5873 5872 5871 5869 5868 5867 5866 5866 5865 5864 5863 5862 5861 5861 5861 5861 5860 5861 5861 5861 5861 5861
5852 5854 5857 5859 5862 5864 5867 5868 5870 5871 5872 5873 5873 5873 5874 5874 5874 5874 5874 5874 5873 5872 5871 5870 5870 5869 5868 5867 5866 5865 5864 5863 5863 5862 5862 5861 5861 5860 5860 5860 5860 5860 5860
5850 5852 5855 5857 5860 5862 5864 5866 5868 5869 5870 5871 5871 5872 5872 5873 5873 5873 5873 5873 5872 5872 5871 5870 5870 5869 5868 5867 5866 5865 5864 5864 5863 5862 5862 5861 5861 5861 5860 5860 5860 5860 5859
5848 5850 5853 5855 5858 5860 5862 5864 5865 5867 5868 5869 5870 5870 5871 5871 5871 5871 5872 5872 5871 5871 5870 5870 5869 5868 5867 5866 5866 5865 5864 5864 5863 5863 5862 5862 5861 5861 5861 5860 5860 5859 5859
5846 5848 5850 5853 5855 5857 5860 5861 5863 5865 5866 5867 5868 5869 5869 5870 5870 5870 5870 5870 5870 5870 5869 5869 5868 5867 5866 5866 5865 5864 5864 5863 5863 5862 5862 5862 5861 5861 5860 5860 5859 5859 5858
5843 5845 5848 5850 5852 5854 5857 5859 5861 5862 5864 5865 5866 5867 5868 5868 5869 5869 5869 5869 5869 5868 5868 5867 5867 5866 5865 5864 5864 5863 5863 5863 5862 5862 5862 5861 5861 5860 5860 5859 5858 5858 5857
5840 5843 5845 5847 5849 5851 5854 5856 5858 5860 5861 5863 5864 5865 5866 5867 5867 5867 5867 5867 5867 5867 5866 5866 5865 5864 5864 5863 5863 5862 5862 5862 5861 5861 5861 5860 5860 5859 5859 5858 5857 5856 5855
5837 5839 5842 5844 5846 5849 5851 5853 5855 5857 5859 5860 5861 5863 5863 5864 5865 5865 5865 5865 5865 5865 5864 5864 5863 5863 5862 5862 5862 5861 5861 5861 5860 5860 5859 5859 5858 5858 5857 5856 5855 5855 5854
5834 5836 5838 5841 5843 5846 5848 5850 5852 5854 5856 5857 5859 5860 5861 5862 5862 5863 5863 5863 5863 5862 5862 5862 5862 5861 5861 5861 5860 5860 5860 5859 5858 5858 5857 5857 5856 5855 5855 5854 5853 5852 5851
5831 5833 5835 5838 5840 5843 5845 5847 5849 5851 5853 5854 5856 5857 5858 5859 5859 5860 5860 5860 5860 5860 5860 5860 5860 5860 5859 5859 5859 5858 5858 5857 5856 5856 5855 5854 5854 5853 5852 5851 5850 5849 5848
5828 5830 5832 5835 5837 5839 5842 5844 5846 5848 5850 5851 5852 5854 5855 5855 5856 5856 5857 5857 5857 5857 5857 5857 5857 5857 5857 5857 5857 5856 5856 5855 5854 5853 5853 5852 5851 5850 5849 5848 5847 5846 5845
5825 5827 5830 5832 5834 5837 5839 5841 5843 5845 5846 5848 5849 5850 5851 5852 5853 5853 5853 5854 5854 5854 5854 5854 5854 5855 5855 5854 5854 5853 5853 5852 5852 5851 5850 5849 5848 5846 5845 5844 5843 5842 5841
5822 5824 5826 5829 5831 5834 5835 5837 5839 5841 5843 5844 5846 5847 5848 5848 5849 5849 5849 5850 5850 5850 5851 5851 5851 5851 5851 5851 5851 5850 5850 5849 5848 5848 5847 5846 5844 5843 5842 5840 5839 5838 5837
5819 5821 5823 5826 5828 5830 5832 5834 5835 5837 5838 5840 5841 5842 5843 5844 5845 5845 5846 5846 5846 5846 5847 5847 5847 5848 5848 5848 5847 5847 5846 5845 5845 5844 5843 5842 5840 5839 5837 5836 5835 5833 5831
5816 5818 5820 5822 5824 5826 5828 5830 5831 5833 5834 5836 5837 5838 5839 5840 5840 5841 5841 5841 5842 5842 5842 5843 5843 5844 5844 5843 5843 5842 5842 5841 5840 5839 5838 5837 5835 5834 5832 5831 5829 5827 5825
5812 5814 5816 5818 5820 5822 5824 5825 5827 5829 5830 5831 5833 5834 5834 5835 5835 5836 5836 5837 5837 5837 5838 5838 5839 5839 5839 5839 5838 5837 5837 5836 5835 5834 5833 5831 5830 5828 5826 5824 5822 5821 5819
5809 5811 5813 5814 5816 5818 5820 5821 5823 5825 5826 5827 5828 5829 5829 5830 5830 5831 5831 5832 5832 5833 5833 5833 5833 5834 5833 5833 5832 5832 5831 5830 5829 5828 5826 5825 5823 5821 5819 5817 5815 5813 5810
5806 5807 5808 5810 5812 5813 5815 5817 5819 5820 5821 5822 5823 5823 5824 5824 5825 5826 5826 5827 5827 5827 5828 5828 5828 5828 5827 5826 5826 5825 5824 5823 5822 5821 5819 5818 5816 5814 5811 5809 5807 5804 5802
5801 5803 5804 5806 5807 5809 5811 5812 5813 5815 5816 5817 5817 5818 5818 5819 5819 5820 5820 5821 5821 5822 5822 5822 5822 5821 5820 5820 5819 5818 5817 5816 5815 5813 5812 5810 5808 5805 5803 5800 5798 5795 5792
5797 5799 5800 5801 5803 5804 5806 5807 5808 5809 5810 5811 5812 5812 5813 5813 5814 5814 5814 5815 5815 5815 5815 5815 5815 5814 5813 5813 5812 5810 5809 5808 5806 5805 5803 5801 5799 5796 5794 5791 5788 5785 5781
5793 5794 5795 5797 5798 5799 5800 5801 5802 5803 5804 5805 5806 5806 5807 5807 5808 5808 5808 5808 5808 5808 5808 5808 5807 5807 5806 5805 5803 5802 5801 5799 5797 5795 5794 5792 5789 5787 5784 5781 5778 5774 5771
5788 5789 5790 5791 5792 5793 5794 5795 5796 5797 5798 5798 5799 5800 5800 5801 5801 5801 5801 5801 5801 5800 5800 5799 5799 5798 5797 5796 5794 5793 5791 5789 5787 5786 5784 5781 5779 5776 5773 5770 5767 5763 5760